TimeEDT,TemperatureF,Dew PointF,Humidity,Sea Level PressureIn,VisibilityMPH,Wind Direction,Wind SpeedMPH,Gust SpeedMPH,PrecipitationIn,Events,Conditions,WindDirDegrees,DateUTC
12:53 AM,36.0,28.0,73,30.23,10.0,SSW,4.6,-,N/A,,Clear,200,2012-10-11 04:53:00
1:53 AM,36.0,28.0,73,30.22,10.0,Calm,Calm,-,N/A,,Clear,0,2012-10-11 05:53:00
2:53 AM,36.0,28.0,73,30.22,10.0,SSW,3.5,-,N/A,,Clear,200,2012-10-11 06:53:00
3:53 AM,35.1,27.0,72,30.24,10.0,SSW,3.5,-,N/A,,Clear,200,2012-10-11 07:53:00
4:53 AM,34.0,27.0,75,30.24,10.0,Calm,Calm,-,N/A,,Clear,0,2012-10-11 08:53:00
5:53 AM,33.1,27.0,78,30.26,10.0,South,3.5,-,N/A,,Clear,190,2012-10-11 09:53:00
6:53 AM,34.0,27.0,75,30.26,10.0,South,8.1,-,N/A,,Clear,180,2012-10-11 10:53:00
7:53 AM,34.0,27.0,75,30.27,10.0,South,9.2,-,N/A,,Clear,180,2012-10-11 11:53:00
8:53 AM,37.9,28.9,70,30.27,10.0,South,9.2,-,N/A,,Clear,190,2012-10-11 12:53:00
9:53 AM,45.0,30.9,58,30.28,10.0,SSW,11.5,-,N/A,,Clear,210,2012-10-11 13:53:00
10:53 AM,50.0,30.9,48,30.26,10.0,SW,16.1,-,N/A,,Clear,220,2012-10-11 14:53:00
11:53 AM,53.1,30.9,43,30.24,10.0,SW,17.3,-,N/A,,Clear,230,2012-10-11 15:53:00
12:53 PM,55.9,30.9,39,30.23,10.0,SW,15.0,-,N/A,,Clear,220,2012-10-11 16:53:00
1:53 PM,57.0,30.0,36,30.19,10.0,WSW,13.8,21.9,N/A,,Clear,240,2012-10-11 17:53:00
2:53 PM,57.9,30.9,36,30.17,10.0,SW,16.1,28.8,N/A,,Clear,230,2012-10-11 18:53:00
4:53 PM,59.0,30.0,33,30.14,10.0,SW,18.4,-,N/A,,Clear,230,2012-10-11 20:53:00
7:53 PM,52.0,30.9,45,30.15,10.0,SSW,8.1,-,N/A,,Clear,210,2012-10-11 23:53:00
8:53 PM,52.0,32.0,47,30.16,10.0,SSW,10.4,-,N/A,,Clear,200,2012-10-12 00:53:00
9:53 PM,51.1,32.0,48,30.15,10.0,South,9.2,-,N/A,,Clear,190,2012-10-12 01:53:00
11:53 PM,51.1,33.1,50,30.17,10.0,SW,8.1,-,N/A,,Clear,230,2012-10-12 03:53:00